[[{"header":{"parameterUnit":"m.s-1","parameterCategory":1,"la1":30.2991,"la2":30.254,"lo1":-89.0895,"lo2":-89.0444,"dy":0.0017,"dx":0.0017,"nx":28,"ny":28,"refTime":"2025-05-14T21:00:00:Z","depth":0,"parameterNumber":2,"parameterNumberName":"U-component_of_WINDS"},"data":[0,0,0,0,0,0,0,0,0,0,0,0,0,0,0,0,0,0,0,0,0,0,0,0,0,0,0,0,0,0,0,0,0,0,0,0,0,0,0,0,0,0,0,0,0,0,0,0,0,0,0,0,0,0,0,0,0,0,1.3362,1.3361,0,1.3261,1.326,1.3258,1.3174,1.3173,1.3172,1.3171,1.3066,1.3064,1.3062,0,0,0,0,0,0,0,0,0,0,0,0,0,1.3479,1.3477,1.3362,1.3361,1.3359,1.3261,1.326,1.3258,1.3174,1.3173,1.3172,1.3171,1.3067,1.3064,1.3062,0,0,0,0,0,0,0,0,0,0,0,0,0,1.3408,1.3476,1.3362,1.3306,1.33,1.3261,1.326,1.3258,1.3174,1.3173,1.3172,1.317,1.3068,1.3065,1.3062,1.3071,0,0,1.3053,1.3052,0,0,0,0,0,0,0,0,1.3412,1.3404,1.3315,1.3309,1.3303,1.3229,1.3262,1.3195,1.3175,1.3222,1.3171,1.317,1.3121,1.3114,1.3098,1.3066,1.3062,1.3053,1.3051,1.305,1.3049,0,0,0,0,0,0,0,1.3417,1.3408,1.3322,1.3314,1.3306,1.3284,1.3273,1.3249,1.318,1.3218,1.3211,1.3201,1.3117,1.3101,1.3095,1.306,1.3053,1.305,1.3048,1.3047,1.3027,1.3028,0,0,0,0,0,0,1.3431,1.3412,1.3325,1.3319,1.3355,1.3283,1.327,1.3254,1.318,1.3168,1.3202,1.3197,1.3106,1.3098,1.3091,1.3094,1.305,1.3047,1.3045,1.3026,1.3028,1.3029,0,0,0,0,0,0,1.3434,1.3424,1.3329,1.3364,1.335,1.3283,1.3265,1.3252,1.3236,1.3168,1.3155,1.3198,1.3105,1.3095,1.3076,1.3089,1.3046,1.3043,1.3025,1.3027,1.3028,1.3103,0,0,0,0,0,0,1.3438,1.3426,1.3429,1.3364,1.3348,1.3317,1.3266,1.3251,1.3231,1.3224,1.3161,1.3149,1.3103,1.3081,1.3073,1.3085,1.3041,1.3023,1.3026,1.3028,1.3099,1.3107,1.3114,0,0,0,0,0,1.3442,1.3455,1.343,1.342,1.3352,1.3318,1.3309,1.3256,1.3233,1.3235,1.3191,1.3151,1.309,1.308,1.307,1.3081,1.3022,1.3025,1.3028,1.3096,1.3106,1.3114,0,0,0,0,0,0,1.3523,1.3445,1.3417,1.3409,1.3371,1.3304,1.3306,1.3269,1.3236,1.3231,1.3166,1.3152,1.314,1.3109,1.3099,1.3084,1.305,1.3051,1.3105,1.3114,1.3122,1.3129,1.3038,0,0,0,0,0,1.354,1.352,1.3453,1.3452,1.3435,1.3374,1.3357,1.332,1.3277,1.3261,1.3216,1.3175,1.3146,1.3129,1.3099,1.3094,1.3078,1.3097,1.3105,1.3111,1.3113,1.3105,1.3112,1.3038,1.3038,1.3038,0,0,1.3575,1.353,1.3521,1.3467,1.3433,1.3413,1.3361,1.3342,1.3325,1.3257,1.3236,1.3202,1.3152,1.314,1.3133,1.3114,1.3129,1.3115,1.3121,1.3118,1.3109,1.3116,1.3122,1.304,1.304,1.3039,0,0,1.3627,1.3592,1.3586,1.3553,1.3502,1.3461,1.346,1.3398,1.3373,1.3351,1.3299,1.3278,1.323,1.3196,1.3173,1.321,1.3171,1.3203,1.3242,1.3235,1.3241,1.3246,1.3257,1.3262,1.3204,1.3204,1.3204,0,1.3676,1.3644,1.3588,1.3572,1.3549,1.3486,1.3479,1.3449,1.3391,1.3376,1.3356,1.3293,1.3256,1.3233,1.3242,1.3226,1.3221,1.3209,1.3245,1.3249,1.3253,1.3263,1.3267,1.3208,1.3208,1.3207,1.3207,0,1.3706,1.3684,1.3686,1.3631,1.3608,1.3597,1.3538,1.3521,1.3485,1.3446,1.3423,1.3376,1.3334,1.3326,1.3291,1.3298,1.3287,1.3257,1.3221,1.3265,1.3273,1.3276,1.3214,1.3213,1.3211,1.321,0,0,1.3806,1.372,1.3721,1.3694,1.3633,1.3614,1.3599,1.3558,1.3544,1.3506,1.349,1.345,1.3421,1.3395,1.3355,1.335,1.338,1.332,1.3317,1.3331,1.3382,1.3404,1.3409,1.3354,1.3355,1.3355,1.3385,0,1.3847,1.3816,1.3765,1.3751,1.3729,1.3668,1.3655,1.3615,1.3577,1.3552,1.3511,1.3483,1.3448,1.3431,1.3423,1.3378,1.3389,1.3375,1.3337,1.3336,1.335,1.3414,1.3437,1.3468,1.3388,1.3389,1.3389,0,1.389,1.3855,1.3839,1.3777,1.3766,1.3754,1.3711,1.3689,1.3642,1.3615,1.3585,1.3541,1.352,1.3488,1.3457,1.3449,1.343,1.3405,1.3405,1.3398,1.3364,1.3406,1.3476,1.348,1.3394,1.3393,1.3393,0,1.3962,1.3911,1.3894,1.3873,1.3801,1.3794,1.3764,1.3715,1.3693,1.3656,1.364,1.3601,1.3579,1.3549,1.3495,1.3478,1.3469,1.3433,1.3444,1.3445,1.3444,1.3444,1.351,1.3435,1.3435,1.3435,1.3435,0,1.4012,1.4004,1.3925,1.3914,1.3902,1.3843,1.3832,1.3796,1.3753,1.3733,1.3679,1.3661,1.3592,1.3566,1.3524,1.3503,1.3494,1.347,1.3459,1.3474,1.3477,1.346,1.3455,1.3436,1.3436,1.3436,1.3435,0,1.409,1.4037,1.4014,1.3947,1.393,1.3925,1.3867,1.3853,1.3813,1.3788,1.3778,1.3714,1.368,1.3624,1.3574,1.3545,1.3531,1.3513,1.3547,1.354,1.3553,1.3552,1.3608,1.3612,1.3537,1.3538,1.3539,0,1.4124,1.4116,1.4049,1.4032,1.4003,1.3977,1.3954,1.3894,1.3873,1.3817,1.381,1.3772,1.3738,1.3686,1.3634,1.3594,1.3574,1.3596,1.3567,1.3582,1.3571,1.3572,1.3569,1.3602,1.3604,1.3604,1.3605,0,1.419,1.4163,1.4133,1.4093,1.4067,1.4033,1.3996,1.3984,1.3916,1.3894,1.3859,1.3833,1.3781,1.3743,1.3696,1.3663,1.3622,1.3615,1.3615,1.3629,1.3648,1.3636,1.3563,1.3613,1.3613,1.3612,1.3612,1.3611,1.4245,1.4234,1.4185,1.4152,1.4118,1.4084,1.4067,1.4024,1.3994,1.3947,1.3914,1.388,1.3831,1.3763,1.3733,1.3704,1.3686,1.3687,1.3686,1.3687,1.3692,1.3655,1.3696,1.3695,1.3695,1.3695,1.3695,0,1.4305,1.4271,1.4241,1.4191,1.4164,1.413,1.4086,1.4066,1.4037,1.3995,1.3963,1.3921,1.3883,1.3828,1.3786,1.3773,1.3753,1.3764,1.3763,1.3756,1.3712,1.3715,1.3781,1.3781,1.3781,1.3781,1.3781,1.3781,1.4334,1.4313,1.4281,1.4242,1.4207,1.4174,1.4152,1.4119,1.4085,1.4041,1.401,1.3974,1.3926,1.388,1.3843,1.3827,1.3813,1.383,1.3808,1.3767,1.3759,1.3752,1.3754,1.3828,1.3828,1.3854,1.3855,1.3855]},{"header":{"parameterUnit":"m.s-1","parameterCategory":1,"la1":30.2991,"la2":30.254,"lo1":-89.0895,"lo2":-89.0444,"dy":0.0017,"dx":0.0017,"nx":28,"ny":28,"refTime":"2025-05-14T21:00:00:Z","depth":0,"parameterNumber":3,"parameterNumberName":"V-component_of_WINDS"},"data":[0,0,0,0,0,0,0,0,0,0,0,0,0,0,0,0,0,0,0,0,0,0,0,0,0,0,0,0,0,0,0,0,0,0,0,0,0,0,0,0,0,0,0,0,0,0,0,0,0,0,0,0,0,0,0,0,0,0,6.71,6.71,0,6.7132,6.7132,6.7133,6.7059,6.7057,6.7054,6.7052,6.7081,6.7084,6.7087,0,0,0,0,0,0,0,0,0,0,0,0,0,6.697,6.6972,6.71,6.71,6.7101,6.7132,6.7132,6.7133,6.7059,6.7057,6.7054,6.7051,6.708,6.7083,6.7087,0,0,0,0,0,0,0,0,0,0,0,0,0,6.7016,6.6973,6.71,6.7068,6.7065,6.7132,6.7132,6.7133,6.706,6.7056,6.7053,6.705,6.7079,6.7083,6.7087,6.7185,0,0,6.7101,6.7103,0,0,0,0,0,0,0,0,6.7014,6.7021,6.7072,6.707,6.7067,6.7088,6.7097,6.715,6.7061,6.7062,6.7052,6.7048,6.7086,6.7089,6.7103,6.7186,6.7187,6.7101,6.7104,6.7106,6.7107,0,0,0,0,0,0,0,6.7011,6.7019,6.7112,6.7073,6.707,6.705,6.7053,6.7107,6.7093,6.7062,6.7056,6.7061,6.7084,6.7099,6.7103,6.7188,6.7101,6.7105,6.7108,6.711,6.7351,6.7354,0,0,0,0,0,0,6.7012,6.7017,6.7111,6.7113,6.7032,6.7055,6.7059,6.7085,6.7092,6.709,6.7064,6.7058,6.7093,6.7098,6.7104,6.7217,6.7106,6.711,6.7112,6.7347,6.7352,6.7356,0,0,0,0,0,0,6.701,6.7021,6.711,6.7064,6.7074,6.7061,6.7092,6.7087,6.7102,6.7094,6.7091,6.7083,6.709,6.7098,6.7165,6.7217,6.7112,6.7116,6.7343,6.7348,6.7354,6.7446,0,0,0,0,0,0,6.7006,6.7021,6.7059,6.7065,6.7076,6.7173,6.7095,6.709,6.7111,6.7102,6.7111,6.7109,6.7088,6.7159,6.717,6.7221,6.7119,6.7338,6.7345,6.7352,6.7438,6.7454,6.7467,0,0,0,0,0,6.7002,6.7083,6.7061,6.7073,6.7124,6.7176,6.7182,6.7158,6.7115,6.7153,6.7147,6.7108,6.721,6.7167,6.7178,6.7232,6.7334,6.7343,6.7351,6.7431,6.7451,6.7467,0,0,0,0,0,0,6.7082,6.7083,6.7059,6.7146,6.7161,6.7163,6.721,6.718,6.7207,6.7198,6.7166,6.7168,6.7241,6.7243,6.7195,6.7326,6.7265,6.7276,6.7322,6.734,6.7354,6.7352,6.7123,0,0,0,0,0,6.711,6.7154,6.7152,6.7228,6.7237,6.7222,6.7244,6.7224,6.7239,6.7244,6.7244,6.7258,6.7293,6.7317,6.7348,6.7438,6.7438,6.7481,6.7495,6.7507,6.7517,6.7563,6.7581,6.7383,6.7383,6.7383,0,0,6.7168,6.7174,6.7203,6.7244,6.7254,6.7298,6.7228,6.7278,6.7309,6.7251,6.7315,6.7316,6.7329,6.7408,6.7442,6.7412,6.7572,6.7518,6.7528,6.7531,6.7574,6.7592,6.7609,6.7389,6.7388,6.7387,0,0,6.7295,6.7305,6.7369,6.738,6.7396,6.7386,6.7401,6.7408,6.7406,6.747,6.7427,6.7463,6.7525,6.7536,6.755,6.768,6.7645,6.7692,6.7768,6.7813,6.7829,6.7842,6.7888,6.7904,6.7701,6.7702,6.7702,0,6.7364,6.743,6.7405,6.7458,6.7476,6.7427,6.749,6.7501,6.7527,6.754,6.7505,6.7581,6.7587,6.7666,6.7698,6.7712,6.7727,6.769,6.7829,6.7842,6.7855,6.7897,6.7915,6.7707,6.7706,6.7706,6.7705,0,6.7514,6.756,6.7609,6.7636,6.766,6.7718,6.7699,6.7726,6.7704,6.7697,6.7762,6.7767,6.7798,6.7816,6.7795,6.7893,6.7873,6.7835,6.7772,6.7879,6.7919,6.7935,6.7715,6.7713,6.7711,6.771,0,0,6.7692,6.7704,6.7723,6.7734,6.7748,6.7782,6.7836,6.7868,6.7891,6.791,6.7954,6.8007,6.7971,6.7987,6.7966,6.8006,6.8108,6.7962,6.7962,6.7988,6.8214,6.8242,6.8262,6.8085,6.8088,6.809,6.8212,0,6.7817,6.7913,6.7891,6.7984,6.8025,6.7979,6.8026,6.8038,6.8033,6.8066,6.8059,6.8097,6.8047,6.8056,6.8094,6.8087,6.8152,6.8078,6.8123,6.8125,6.812,6.8282,6.8313,6.8428,6.8228,6.823,6.8232,0,6.7976,6.8002,6.8099,6.8106,6.8122,6.8165,6.8192,6.8225,6.8237,6.823,6.8248,6.8219,6.8271,6.821,6.828,6.823,6.8247,6.8247,6.8251,6.8253,6.8185,6.8288,6.8464,6.8481,6.8257,6.8255,6.8253,0,6.8094,6.8154,6.8219,6.823,6.824,6.8271,6.8276,6.8285,6.8305,6.8328,6.8341,6.8369,6.8385,6.8407,6.8386,6.8343,6.8459,6.8396,6.8453,6.8454,6.8479,6.8477,6.8659,6.8492,6.8492,6.8492,6.8491,0,6.8236,6.8297,6.8273,6.8313,6.838,6.8353,6.8419,6.8419,6.8428,6.8466,6.8427,6.8463,6.8434,6.8467,6.8451,6.8511,6.8519,6.8513,6.8508,6.8516,6.8517,6.8526,6.8517,6.8496,6.8495,6.8494,6.8493,0,6.8379,6.8366,6.8434,6.8437,6.844,6.8488,6.849,6.8527,6.8518,6.8567,6.8577,6.8563,6.86,6.8582,6.8621,6.861,6.8687,6.8671,6.8683,6.8678,6.8736,6.873,6.8929,6.8953,6.8772,6.8774,6.8775,0,6.847,6.8516,6.8524,6.8547,6.8555,6.8593,6.8614,6.8589,6.8612,6.863,6.8664,6.8698,6.8723,6.8785,6.8777,6.8806,6.879,6.8858,6.8794,6.8801,6.879,6.8787,6.879,6.887,6.8872,6.8874,6.8875,0,6.8631,6.8622,6.8654,6.8683,6.8709,6.8731,6.8749,6.877,6.8746,6.8773,6.8811,6.8831,6.887,6.8904,6.8929,6.8932,6.89,6.8896,6.891,6.8918,6.8923,6.892,6.8716,6.8891,6.8889,6.8888,6.8887,6.8887,6.8749,6.8788,6.8799,6.8836,6.8847,6.8865,6.8899,6.8895,6.8927,6.8958,6.8941,6.8985,6.8995,6.9025,6.9033,6.9066,6.9039,6.906,6.9066,6.9071,6.9078,6.8919,6.9071,6.907,6.907,6.9069,6.9069,0,6.8907,6.8913,6.8946,6.8973,6.9002,6.897,6.8988,6.9013,6.9053,6.9066,6.9092,6.9135,6.9167,6.9163,6.9192,6.9219,6.9205,6.9228,6.9225,6.9226,6.9101,6.9085,6.9239,6.9239,6.9239,6.9239,6.9239,6.9239,6.8993,6.9055,6.9048,6.9115,6.9119,6.9163,6.9176,6.9191,6.9201,6.9252,6.9279,6.9276,6.9281,6.931,6.9338,6.9336,6.9348,6.9376,6.9368,6.9251,6.9235,6.9219,6.9203,6.9379,6.9379,6.9489,6.949,6.9491]}]]